Prescott, AZ

5:07 AM MST on October 15, 2019 (GMT -0700)
Love

Weather History for KPRC - August, 2019

Change the Weather History Date:

Sunday, August 4, 2019

  Actual Average Record
Temperature  
Mean Temperature 81 °F 75 °F  
Max Temperature 94 °F 87 °F 99 °F (1994)
Min Temperature 67 °F 62 °F 52 °F (1976)
Degree Days  
Heating Degree Days 0    
Month to date heating degree days 0  
Since 1 July heating degree days 0  
Cooling Degree Days 16    
Month to date cooling degree days 56  
Year to date cooling degree days 624  
Growing Degree Days 28 (Base 50)    
Moisture  
Dew Point 53 °F    
Average Humidity 43    
Maximum Humidity 73    
Minimum Humidity 21    
Precipitation  
Precipitation T in 0.08 in 1.42 in (1968)
Month to date precipitation 0.16 0.34  
Year to date precipitation 7.97 7.38  
Sea Level Pressure  
Sea Level Pressure 29.96 in    
Wind  
Wind Speed 5 mph (SSE)    
Max Wind Speed 21 mph    
Max Gust Speed 26 mph    
Visibility 10 miles    
Events Thunderstorm    
T = Trace of Precipitation, MM = Missing Value Source: NWS Daily Summary

Daily Weather History Graph

Daily Weather History Graph

Search for Another Location

Airport or City:

Astronomy

Aug. 04, 2019 Rise Set
Actual Time 5:41 AM MST 7:29 PM MST
Civil Twilight 5:14 AM MST 7:56 PM MST
Nautical Twilight 4:41 AM MST 8:29 PM MST
Astronomical Twilight 4:06 AM MST 9:04 PM MST
Moon 9:43 AM MST (8/4) 10:21 PM MST (8/4)
Length of Visible Light 14h 42m
Length of Day
13h 47m
Waxing Crescent, 19% of the Moon is Illuminated
Aug 4
Waxing Crescent
Aug 7
First Quarter
Aug 15
Full
Aug 23
Last Quarter
Aug 30
New

Hourly Weather History & Observations

Time (MST) Temp. Heat Index Dew Point Humidity Pressure Visibility Wind Dir Wind Speed Gust Speed Precip Events Conditions
12:34 AM 73.0 °F - 54.0 °F 51% 30.21 in 10.0 mi SSE 18.4 mph - N/A   Partly Cloudy
12:53 AM 75.0 °F - 52.0 °F 44% 29.91 in 10.0 mi SSW 6.9 mph - N/A   Clear
1:53 AM 70.0 °F - 57.0 °F 63% 29.97 in 10.0 mi SE 10.4 mph - N/A   Clear
2:53 AM 69.1 °F - 57.0 °F 65% 29.97 in 10.0 mi ESE 6.9 mph - N/A   Clear
3:53 AM 69.1 °F - 57.0 °F 65% 29.94 in 10.0 mi SSW 3.5 mph - N/A   Clear
4:53 AM 69.1 °F - 57.9 °F 68% 29.93 in 10.0 mi Calm Calm - N/A   Mostly Cloudy
5:53 AM 68.0 °F - 57.0 °F 68% 29.95 in 10.0 mi WSW 3.5 mph - N/A   Scattered Clouds
6:53 AM 66.9 °F - 57.9 °F 73% 29.99 in 10.0 mi Calm Calm - N/A   Scattered Clouds
7:53 AM 73.0 °F - 57.9 °F 59% 29.98 in 10.0 mi Calm Calm - N/A   Scattered Clouds
8:53 AM 75.9 °F - 57.0 °F 52% 29.97 in 10.0 mi Calm Calm - N/A   Clear
9:53 AM 82.9 °F 82.0 °F 55.0 °F 38% 29.96 in 10.0 mi NE 3.5 mph - N/A   Clear
10:53 AM 88.0 °F - 52.0 °F 29% 29.94 in 10.0 mi Calm Calm - N/A   Partly Cloudy
11:53 AM 90.0 °F - 48.9 °F 24% 29.93 in 10.0 mi North 5.8 mph - N/A   Scattered Clouds
12:53 PM 90.0 °F - 50.0 °F 25% 29.91 in 10.0 mi SW 10.4 mph - N/A   Scattered Clouds
1:53 PM 90.0 °F - 48.9 °F 24% 29.90 in 10.0 mi Variable 5.8 mph - N/A   Mostly Cloudy
2:53 PM 91.0 °F - 46.9 °F 22% 29.89 in 10.0 mi South 9.2 mph 20.7 mph N/A   Mostly Cloudy
3:15 PM 89.6 °F - 46.4 °F 22% 30.17 in 10.0 mi Calm Calm - N/A Thunderstorm Mostly Cloudy
3:53 PM 88.0 °F - 51.1 °F 28% 29.88 in 10.0 mi East 18.4 mph 25.3 mph N/A Thunderstorm Thunderstorm
4:00 PM 87.1 °F - 51.1 °F 29% 30.15 in 10.0 mi ENE 13.8 mph 25.3 mph N/A Thunderstorm Thunderstorm
4:53 PM 89.1 °F - 52.0 °F 28% 29.87 in 10.0 mi North - - N/A Thunderstorm Thunderstorm
5:53 PM 88.0 °F - 51.1 °F 28% 29.87 in 10.0 mi ENE 4.6 mph - N/A   Mostly Cloudy
6:53 PM 84.9 °F - 52.0 °F 32% 29.90 in 10.0 mi NNE 6.9 mph - N/A   Scattered Clouds
7:53 PM 81.0 °F 80.5 °F 54.0 °F 39% 29.92 in 10.0 mi NNW 5.8 mph - N/A Thunderstorm Mostly Cloudy
8:50 PM 80.6 °F 80.3 °F 53.6 °F 39% 30.20 in 10.0 mi West 8.1 mph - 0.00 in   Partly Cloudy
8:53 PM 81.0 °F 80.4 °F 53.1 °F 38% 29.93 in 10.0 mi West 5.8 mph - 0.00 in   Partly Cloudy
9:53 PM 77.0 °F - 55.0 °F 47% 29.91 in 10.0 mi SSW 9.2 mph - N/A   Clear
10:53 PM 75.0 °F - 54.0 °F 48% 29.91 in 10.0 mi South 5.8 mph - N/A   Clear
11:53 PM 73.0 °F - 53.1 °F 49% 29.91 in 10.0 mi Calm Calm - N/A   Mostly Cloudy